SQ6ELQ-11 Weather Reports


time (UTC)temp
C
wind
direction
speed
KPH
gust
KPH
rain 1hr
cm
rain 24hr
cm
rain mn
cm
humidity
%
barometer
mb
20260507235433 6 0 0.0 0.0 0.00 0.00 0.00 78 1016.1
20260507233753 6 0 0.0 0.0 0.00 0.00 0.00 79 1016.1
20260507231905 6 0 0.0 0.0 0.00 0.00 0.00 78 1016.3
20260507230030 6 0 0.0 0.0 0.00 0.00 0.00 78 1016.1
20260507224325 6 0 0.0 0.0 0.00 0.00 0.00 79 1016.0
20260507222532 6 0 0.0 0.0 0.00 0.00 0.00 78 1016.1
20260507220856 6 0 0.0 0.0 0.00 0.00 0.00 79 1016.0
20260507215052 6 0 0.0 0.0 0.00 0.00 0.00 79 1016.0
20260507213251 6 0 0.0 0.0 0.00 0.00 0.00 79 1015.8
20260507211436 6 0 0.0 0.0 0.00 0.00 0.00 79 1015.8
20260507205646 6 0 0.0 0.0 0.00 0.00 0.00 79 1015.7
20260507203846 6 0 0.0 0.0 0.00 0.00 0.00 79 1015.5
20260507201911 6 0 0.0 0.0 0.00 0.00 0.00 80 1015.4
20260507200206 6 0 0.0 0.0 0.00 0.00 0.00 80 1015.3
20260507194257 7 0 0.0 0.0 0.00 0.00 0.00 79 1015.4
20260507192606 7 0 0.0 0.0 0.00 0.00 0.00 80 1015.3
20260507190831 7 0 0.0 0.0 0.00 0.00 0.00 80 1015.1
20260507184928 7 0 0.0 0.0 0.00 0.00 0.00 78 1014.9
20260507183201 7 0 0.0 0.0 0.00 0.00 0.00 79 1014.6
20260507181316 7 0 0.0 0.0 0.00 0.00 0.00 80 1014.5
20260507175456 7 0 0.0 0.0 0.00 0.00 0.00 80 1014.5
20260507173713 7 0 0.0 0.0 0.00 0.00 0.00 80 1014.3
20260507171931 7 0 0.0 0.0 0.00 0.00 0.00 80 1013.9
20260507170153 7 0 0.0 0.0 0.00 0.00 0.00 81 1013.7
20260507164256 7 0 0.0 0.0 0.00 0.00 0.00 80 1013.6
20260507162455 7 0 0.0 0.0 0.00 0.00 0.00 77 1013.4
20260507160651 7 0 0.0 0.0 0.00 0.00 0.00 77 1013.3
20260507154915 8 0 0.0 0.0 0.00 0.00 0.00 75 1013.2
20260507153301 8 0 0.0 0.0 0.00 0.00 0.00 73 1013.2
20260507151515 8 0 0.0 0.0 0.00 0.00 0.00 72 1013.0
20260507145730 8 0 0.0 0.0 0.00 0.00 0.00 70 1013.1
20260507143850 8 0 0.0 0.0 0.00 0.00 0.00 72 1012.9
20260507142127 8 0 0.0 0.0 0.00 0.00 0.00 73 1013.0
20260507140341 8 0 0.0 0.0 0.00 0.00 0.00 74 1013.0
20260507134511 8 0 0.0 0.0 0.00 0.00 0.00 72 1013.0
20260507132711 9 0 0.0 0.0 0.00 0.00 0.00 72 1012.9
20260507130858 9 0 0.0 0.0 0.00 0.00 0.00 73 1012.9
20260507125050 9 0 0.0 0.0 0.00 0.00 0.00 72 1012.8
20260507123315 9 0 0.0 0.0 0.00 0.00 0.00 73 1012.6
20260507121416 10 0 0.0 0.0 0.00 0.00 0.00 69 1012.5
20260507115636 10 0 0.0 0.0 0.00 0.00 0.00 67 1012.2
20260507113845 10 0 0.0 0.0 0.00 0.00 0.00 66 1012.1
20260507112053 10 0 0.0 0.0 0.00 0.00 0.00 67 1012.2
20260507110236 10 0 0.0 0.0 0.00 0.00 0.00 67 1012.0
20260507104430 10 0 0.0 0.0 0.00 0.00 0.00 68 1011.8
20260507102613 11 0 0.0 0.0 0.00 0.00 0.00 64 1011.5
20260507100846 11 0 0.0 0.0 0.00 0.00 0.00 64 1011.6
20260507095116 11 0 0.0 0.0 0.00 0.00 0.00 60 1011.3
20260507093236 13 0 0.0 0.0 0.00 0.00 0.00 60 1011.0
20260507091501 13 0 0.0 0.0 0.00 0.00 0.00 63 1010.6
20260507085741 12 0 0.0 0.0 0.00 0.00 0.00 62 1010.7
20260507083952 12 0 0.0 0.0 0.00 0.00 0.00 64 1010.5
20260507082349 11 0 0.0 0.0 0.00 0.00 0.00 67 1010.4
20260507080603 10 0 0.0 0.0 0.00 0.00 0.00 71 1010.4
20260507074726 9 0 0.0 0.0 0.00 0.00 0.00 75 1010.3
20260507073026 8 0 0.0 0.0 0.00 0.00 0.00 76 1010.3
20260507071322 10 0 0.0 0.0 0.00 0.00 0.00 77 1009.9
20260507065426 9 0 0.0 0.0 0.00 0.00 0.00 78 1009.8
20260507063458 9 0 0.0 0.0 0.00 0.00 0.00 78 1009.7
20260507061728 9 0 0.0 0.0 0.00 0.00 0.00 78 1009.7
20260507055936 10 0 0.0 0.0 0.00 0.00 0.00 77 1009.4
20260507054151 11 0 0.0 0.0 0.00 0.00 0.00 78 1009.2
20260507052426 11 0 0.0 0.0 0.00 0.00 0.00 77 1008.9
20260507050758 11 0 0.0 0.0 0.00 0.00 0.00 77 1008.9
20260507044830 10 0 0.0 0.0 0.00 0.00 0.00 77 1008.7
20260507043133 10 0 0.0 0.0 0.00 0.00 0.00 78 1008.6
20260507041344 10 0 0.0 0.0 0.00 0.00 0.00 78 1008.4
20260507035624 10 0 0.0 0.0 0.00 0.00 0.00 78 1008.3
20260507033826 10 0 0.0 0.0 0.00 0.00 0.00 79 1008.2
20260507032026 10 0 0.0 0.0 0.00 0.00 0.00 80 1008.2
20260507030146 10 0 0.0 0.0 0.00 0.00 0.00 81 1008.1
20260507024306 10 0 0.0 0.0 0.00 0.00 0.00 82 1008.0
20260507022525 10 0 0.0 0.0 0.00 0.00 0.00 82 1007.9
20260507020741 10 0 0.0 0.0 0.00 0.00 0.00 81 1007.9
20260507015011 10 0 0.0 0.0 0.00 0.00 0.00 81 1007.8
20260507013328 10 0 0.0 0.0 0.00 0.00 0.00 81 1007.5
20260507011533 10 0 0.0 0.0 0.00 0.00 0.00 82 1007.4
20260507005805 10 0 0.0 0.0 0.00 0.00 0.00 81 1007.2
20260507003950 10 0 0.0 0.0 0.00 0.00 0.00 81 1007.3
20260507002236 10 0 0.0 0.0 0.00 0.00 0.00 82 1007.4
20260507000416 10 0 0.0 0.0 0.00 0.00 0.00 81 1007.8